AirNav   Everest Fuels
 
 967 users online  

MN81 J J and T Airport
East Grand Forks, Minnesota, USA

GOING TO EAST GRAND FORKS?


FAA INFORMATION EFFECTIVE 03 NOVEMBER 2022

Location

FAA Identifier: MN81
Lat/Long: 47-59-19.9270N 097-01-52.2690W
47-59.332117N 097-01.871150W
47.9888686,-97.0311858
(estimated)
Elevation: 828 ft. / 252 m (estimated)
Variation: 07E (1985)
From city: 4 miles S of EAST GRAND FORKS, MN
Time zone: UTC -6 (UTC -5 during Daylight Saving Time)
Zip code: 56721

Airport Operations

Airport use: Private use, PERSONAL USE.
Activation date: 09/1990
Control tower: no
ARTCC: MINNEAPOLIS CENTER
FSS: PRINCETON FLIGHT SERVICE STATION
Attendance: UNATNDD
Segmented circle: no

Airport Communications

WX ASOS at GFK (6 nm SW): PHONE 701-772-3486
WX AWOS-3 at CKN (19 nm SE): 126.425 (218-281-3018)

Nearby radio navigation aids

VOR radial/distance  VOR name  Freq  Var
GFKr063/6.5GRAND FORKS VOR/DME114.3009E
TVFr254/34.2THIEF RIVER FALLS VOR/DME114.4508E

 
NDB name  Hdg/Dist  Freq  Var  ID
HISER029/10.534506EGF --. ..-.

Airport Services

Runway Information

Runway 17/35

Dimensions: 2600 x 80 ft. / 792 x 24 m
Surface: turf
RUNWAY 17  RUNWAY 35
Traffic pattern: leftleft
Obstructions: noneplines, 100 ft. from runway

Airport Ownership and Management from official FAA records

Ownership: Privately-owned
Owner: JOHN P JENSON
2016 4TH AVE N
GRAND FORKS, ND 58201
Phone 701-772-6510

Airport Operational Statistics

Aircraft based on the field: 3
Single engine airplanes: 3
    

Additional Remarks

DO NOT CHART PER MINNESOTA DEPARTMENT OF TRANSPORTATION
FOR CD CTC MINNEAPOLIS ARTCC AT 651-463-5588.

Instrument Procedures

There are no published instrument procedures at MN81.

Some nearby airports with instrument procedures:

KGFK - Grand Forks International Airport (6 nm SW)
KRDR - Grand Forks Air Force Base (15 nm W)
D37 - Warren Municipal Airport (18 nm NE)
KCKN - Crookston Municipal Airport - Kirkwood Field (19 nm SE)
4V4 - Northwood Municipal Airport-Vince Field (28 nm SW)
 
Loc | Ops | Rwys | IFR | FBO | Links
Com | Nav | Svcs | Stats | Notes
Area around MN81 (J J and T Airport)
 
Road maps at: MapQuest Bing Google
 
Aerial photo
No photo
 
Sectional chart

 
Airport distance calculator
Flying to J J and T Airport? Find the distance to fly.

From to MN81

Sunrise and sunset
Times for 26-Nov-2022
 Local
(UTC-6)
 Zulu
(UTC)
Morning civil twilight07:1613:16
Sunrise07:5113:51
Sunset16:4022:40
Evening civil twilight17:1523:15

Current date and time
Zulu (UTC)  26-Nov-2022 16:06:07
Local (UTC-6)  26-Nov-2022 10:06:07
 
METAR
KGFK 
7nm W 
261553Z 33010KT 10SM BKN150 03/M01 A2970 RMK AO2 SLP066 T00331006
KRDR 
15nm W 
261555Z AUTO 33009KT 10SM FEW120 SCT170 03/M00 A2969 RMK AO2 SLP067 T00301005 $
KCKN 
19nm SE 
261555Z 32009KT 10SM 01/M01 A2970 RMK AO2
TAF
KGFK 
7nm W 
261124Z 2612/2712 28006KT P6SM BKN230 FM261500 32011KT P6SM BKN210 FM261700 32012G20KT P6SM BKN190 FM262300 30009KT P6SM BKN230
NOTAMs
Click for the latest NOTAMs
NOTAMs are issued by the DoD/FAA and will open in a separate window not controlled by AirNav.

 

 
 

Would you like to see your business listed on this page?

 If your business provides an interesting product or service to pilots, flight crews, aircraft, or users of the J J and T Airport, you should consider listing it here.  To start the listing process, click on the button below
 
Add a business
 

Other Pages about J J and T Airport

Update a link
 
Copyright © AirNav, LLC. All rights reserved. Privacy Policy  Contact